Weather History for Telfer, WE

Change the Weather History Date:

Tuesday, February 5, 2013

  Actual Average Record
Temperature  
Mean Temperature 92 °F -  
Max Temperature 111 °F - - ()
Min Temperature 73 °F - - ()
Cooling Degree Days 27    
Growing Degree Days 42 (Base 50)    
Moisture  
Dew Point 42 °F    
Average Humidity 15    
Maximum Humidity 34    
Minimum Humidity 4    
Precipitation  
Precipitation 0.00 in - - ()
Sea Level Pressure  
Sea Level Pressure 29.82 in    
Wind  
Wind Speed 7 mph ()    
Max Wind Speed 16 mph    
Max Gust Speed 28 mph    
T = Trace of Precipitation, MM = Missing Value Source: Averaged Metar Reports

Daily Weather History Graph

Daily Weather History Graph

Search for Another Location

Airport:

Trip Planner

Search our weather history database for the weather conditions in past years. The results will help you decide how hot, cold, wet, or windy it might be!

Date:

Astronomy

Feb. 05, 2013 Rise Set
Actual Time 5:35 AM AWST 6:34 PM AWST
Civil Twilight 5:11 AM AWST 6:58 PM AWST
Nautical Twilight 4:43 AM AWST 7:25 PM AWST
Astronomical Twilight 4:15 AM AWST 7:54 PM AWST
Moon 12:13 AM AWST (2/5) 1:49 PM AWST (2/5)
Length of Visible Light 13h 46m
Length of Day
12h 59m
Waning Crescent, 32% of the Moon is Illuminated
Feb 5
Waning Crescent
Feb 10
New
Feb 18
First Quarter
Feb 26
Full
Mar 5
Last Quarter

Hourly Weather History & Observations

Time (AWST) Temp. Dew Point Humidity Pressure Visibility Wind Dir Wind Speed Gust Speed Precip Events Conditions
12:00 AM 86 °F 29 °F 6% 29.83 in - SSE 8.1 mph - -  
12:00 AM 86.0 °F 28.4 °F 12% 29.89 in - SSE 8.1 mph - N/A   Unknown
1:00 AM 82.4 °F 35.6 °F 19% 29.86 in - SE 1.2 mph - N/A   Unknown
2:00 AM 83 °F 43 °F 15% 29.79 in - Calm Calm - -  
3:00 AM 80 °F 44 °F 18% 29.79 in - SSE 4.6 mph - -  
3:00 AM 78.8 °F 44.6 °F 30% 29.86 in - SSE 4.6 mph - N/A   Unknown
4:00 AM 77.0 °F 42.8 °F 29% 29.86 in - Calm Calm - N/A   Unknown
5:00 AM 75 °F 42 °F 20% 29.81 in - SSE 3.5 mph - -  
5:00 AM 75.2 °F 41.0 °F 29% 29.86 in - SSE 3.5 mph - N/A   Unknown
6:00 AM 74 °F 45 °F 25% 29.82 in - SE 5.8 mph - -  
6:00 AM 75.2 °F 44.6 °F 34% 29.89 in - SE 5.8 mph - N/A   Unknown
7:00 AM 86.0 °F 44.6 °F 23% 29.89 in - SSE 8.1 mph - N/A   Unknown
8:00 AM 92 °F 49 °F 14% 29.84 in - SE 8.1 mph - -  
8:00 AM 93.2 °F 50.0 °F 23% 29.89 in - SE 8.1 mph - N/A   Unknown
9:00 AM 96 °F 52 °F 14% 29.84 in - ESE 6.9 mph - -  
9:00 AM 96.8 °F 51.8 °F 22% 29.89 in - ESE 6.9 mph - N/A   Unknown
10:00 AM 102.2 °F 50.0 °F 17% 29.89 in - ESE 11.5 mph - N/A   Unknown
11:00 AM 105 °F 48 °F 8% 29.81 in - ESE 12.7 mph - -  
11:00 AM 105.8 °F 48.2 °F 14% 29.86 in - ESE 12.7 mph - N/A   Unknown
12:00 PM 108 °F 37 °F 4% 29.78 in - East 12.7 mph - -  
12:00 PM 107.6 °F 37.4 °F 9% 29.83 in - East 12.7 mph - N/A   Unknown
1:00 PM 109.4 °F 35.6 °F 8% 29.83 in - ESE 13.8 mph 27.6 mph N/A   Unknown
2:00 PM 108 °F 34 °F 4% 29.73 in - ESE 15.0 mph - -  
2:00 PM 107.6 °F 33.8 °F 8% 29.80 in - ESE 15.0 mph 26.5 mph N/A   Unknown
3:00 PM 108 °F 34 °F 4% 29.73 in - SE 11.5 mph - -  
3:00 PM 107.6 °F 33.8 °F 8% 29.77 in - SE 11.5 mph - N/A   Unknown
4:00 PM 109.4 °F 37.4 °F 9% 29.77 in - ESE 13.8 mph - N/A   Unknown
5:00 PM 107 °F 36 °F 4% 29.72 in - South 15.0 mph - -  
5:00 PM 107.6 °F 35.6 °F 8% 29.77 in - South 15.0 mph - N/A   Unknown
6:00 PM 104 °F 39 °F 5% 29.73 in - SE 16.1 mph - -  
6:00 PM 104.0 °F 39.2 °F 11% 29.80 in - SE 16.1 mph - N/A   Unknown
7:00 PM 100.4 °F 44.6 °F 15% 29.80 in - SSE 10.4 mph - N/A   Unknown
8:00 PM 96 °F 47 °F 11% 29.78 in - SE 6.9 mph - -  
8:00 PM 96.8 °F 48.2 °F 19% 29.83 in - SE 6.9 mph - N/A   Unknown
9:00 PM 95 °F 47 °F 11% 29.79 in - SSE 5.8 mph - -  
10:00 PM 93.2 °F 48.2 °F 21% 29.86 in - ESE 4.6 mph - N/A   Unknown
11:00 PM 92 °F 49 °F 14% 29.79 in - ESE 4.6 mph - -  
11:00 PM 91.4 °F 48.2 °F 23% 29.86 in - ESE 4.6 mph - N/A   Unknown